SCP
-0 -0 -0 -0 -0 -0 -0 -0 -0 -0 -0 -0 0 0 0 0 0 0 0 -0 0 -0 0 0 0 0 0 0 0 0 0 -0 -0 0 -0 0 0 0 0 0 0 0 0 0 -0
-0 -0 -0 -0 -0 -0 -0 -0 -0 -0 -0 -0 0 0 0 0 0 0 -0 -0 -0 0 0 0 0 0 0 0 0 0 0 -0 -0 -0 -0 0 0 0 0 0 0 0 0 0 -0
-0 -0 -0 -0 -0 -0 -0 -0 -0 -0 -0 -0 0 0 0 0 0 0 -0 -0 0 0 0 0 0 0 0 0 0 0 -0 -0 -0 0 0 0 0 0 0 0 0 0 0 0 0
-0 -0 -0 -0 -0 -0 -0 -0 -0 -0 -0 -0 0 0 0 0 0 0 -0 0 0 0 0 0 0 0 0 0 0 0 0 0 0 0 0 -0 0 0 -0 0 0 0 0 0 0
0 -0 -0 -0 -0 -0 -0 -0 -0 -0 -0 -0 0 0 0 0 0 0 -0 0 0 0 0 0 0 0 0 0 0 0 0 0 0 0 0 0 0 0 -0 -0 0 0 0 0 0
0 0 -0 -0 -0 -0 -0 -0 -0 -0 -0 -0 0 0 0 0 0 -0 -0 0 0 0 0 0 0 0 0 0 0 0 0 0 0 0 0 0 0 0 0 0 0 0 0 0 0
0 0 -0 -0 -0 -0 -0 -0 -0 -0 -0 0 0 0 0 -0 0 -0 -0 0 0 0 0 0 0 -0 0 0 0 0 0 0 0 0 0 0 0 0 0 0 0 0 0 0 0
0 0 -0 -0 -0 -0 -0 0 0 0 0 0 0 0 -0 0 0 -0 -0 0 0 0 0 0 0 0 -0 0 0 0 0 0 0 0 0 0 0 0 0 0 0 0 0 0 0
-0 -0 -0 -0 -0 -0 -0 0 0 0 0 0 0 0 -0 0 0 0 0 0 -0 -0 0 0 0 0 0 0 0 0 0 0 0 0 0 0 0 0 0 0 0 0 0 0 0
-0 -0 -0 -0 -0 -0 -0 0 0 0 0 0 0 0 -0 -0 0 0 0 0 0 -0 0 -0 -0 -0 0 -0 -0 -0 -0 0 0 0 0 0 0 0 0 0 0 0 0 0 0
-0 -0 -0 -0 -0 -0 0 0 0 0 0 0 0 0 0 0 0 -0 0 -0 -0 0 0 0 -0 -0 -0 -0 0 0 0 -0 0 0 0 0 -0 -0 -0 -0 0 0 0 0 0
-0 -0 -0 -0 -0 -0 0 0 0 0 0 0 0 0 0 0 0 0 0 0 0 0 -0 -0 0 -0 -0 -0 0 0 0 0 0 0 0 0 0 0 -0 -0 0 0 0 0 0
-0 -0 -0 -0 -0 0 0 0 0 0 0 0 0 0 0 0 0 0 0 -0 -0 -0 0 -0 0 0 0 0 0 0 0 0 0 0 0 0 0 0 0 0 0 0 0 0 0
-0 -0 -0 -0 0 0 0 0 0 0 0 0 0 0 0 0 0 0 0 -0 -0 -0 0 -0 0 0 0 0 0 0 0 0 0 -0 0 -0 0 0 0 0 0 0 0 0 0
-0 -0 -0 0 0 0 0 0 0 0 0 0 0 0 0 0 0 0 0 0 -0 0 -0 0 -0 0 0 0 0 0 0 0 0 0 -0 0 -0 0 0 0 0 0 0 0 0
-0 -0 -0 -0 0 0 0 0 0 0 0 0 0 0 0 0 0 0 0 0 0 0 0 -0 0 0 0 0 0 0 0 0 0 0 0 0 0 0 0 0 0 0 0 0 0
-0 -0 0 0 0 0 0 0 0 0 0 0 0 0 -0 0 0 0 0 0 0 0 0 0 -0 0 0 0 0 0 0 0 0 0 0 0 0 0 0 0 0 0 0 0 0
-0 -0 0 0 0 0 0 0 0 0 0 0 0 0 0 0 0 0 0 0 0 0 -0 0 0 0 0 -0 0 0 0 0 0 0 0 0 0 0 0 0 0 0 0 0 0
-0 0 0 0 0 0 0 -0 0 0 0 0 0 0 0 0 0 0 0 -0 0 0 -0 0 -0 0 0 0 0 0 0 0 0 0 0 0 0 0 0 0 0 0 0 0 0
0 0 0 0 0 0 0 0 0 0 0 0 0 0 0 0 0 0 0 0 -0 -0 -0 0 0 0 0 0 0 0 0 0 0 0 -0 0 0 0 0 0 0 1 0 0 0
0 0 0 0 0 0 0 0 0 0 0 0 0 0 0 0 -0 -0 0 0 -0 0 -0 0 0 0 0 0 0 0 0 0 0 0 0 0 0 0 0 0 0 0 0 0 0
0 0 0 0 0 0 0 0 0 0 0 0 0 0 0 -0 -0 -0 -0 0 0 0 0 -0 -0 0 0 0 0 0 0 0 0 0 0 0 0 0 0 0 0 0 0 0 0
0 0 0 0 0 0 0 0 0 0 0 0 0 0 0 0 0 0 0 0 -0 -0 -0 0 0 -0 0 0 0 0 0 0 0 0 0 0 0 0 0 0 1 1 0 0 0
0 0 0 0 0 0 0 0 0 0 0 0 0 0 0 0 0 0 0 0 0 0 -0 -0 0 0 0 0 0 0 0 0 0 0 0 0 0 0 0 0 1 1 0 0 0
0 0 0 0 0 0 0 0 0 0 0 0 0 0 0 0 0 0 0 0 0 0 0 0 0 0 0 0 0 0 -0 0 0 0 0 0 0 0 0 0 0 0 0 0 0
0 0 0 0 0 0 0 0 0 0 0 0 0 0 0 0 0 0 0 0 0 0 0 0 0 0 0 0 0 -0 -0 0 0 0 0 0 0 0 0 0 0 0 0 0 0
0 0 0 0 0 0 0 0 0 0 0 0 0 0 0 0 0 0 0 0 0 0 0 0 0 -0 0 0 -0 -0 0 0 0 0 0 0 0 0 0 0 0 0 0 0 0
Wind_Speed_500mb
31 31 32 35 36 39 41 44 43 37 30 13 7 11 11 9 11 11 3 5 2 3 2 3 5 6 2 3 7 5 4 15 16 4 18 12 8 3 1 5 5 8 4 3 17
31 32 30 32 34 36 40 43 42 38 31 13 9 12 12 10 10 11 11 8 4 5 5 5 5 3 3 3 4 12 17 22 9 9 9 11 10 7 7 8 11 12 9 9 21
30 31 31 30 31 34 38 42 41 37 31 15 11 14 13 11 9 7 15 9 1 2 6 4 6 2 2 2 7 8 19 9 8 2 8 5 7 6 10 6 7 10 12 19 22
34 31 30 31 30 32 36 41 41 38 29 13 11 15 12 13 3 10 11 8 5 1 2 5 7 4 4 10 5 4 7 1 4 7 4 5 3 7 16 6 5 11 12 22 23
35 35 31 31 31 31 33 38 41 40 25 9 11 16 13 13 1 8 13 10 4 4 6 7 4 5 8 6 5 12 8 4 5 10 11 6 15 16 15 18 9 9 19 24 20
33 35 34 31 30 29 30 34 38 34 17 7 10 17 11 22 10 10 9 10 3 3 5 5 8 7 8 8 11 10 8 7 10 10 12 16 13 9 6 19 18 18 23 22 22
31 33 34 33 27 28 28 31 32 26 14 6 10 17 12 2 13 16 18 14 7 3 6 6 5 13 8 6 2 8 16 8 11 8 9 12 25 17 10 19 25 25 24 24 24
31 31 33 32 27 26 27 29 31 22 23 8 12 14 8 15 9 18 20 14 6 2 4 3 5 3 10 3 7 11 5 10 10 7 7 12 14 10 10 22 28 26 28 29 31
30 30 31 30 28 24 25 32 32 15 15 7 9 10 15 11 7 16 18 6 5 3 5 5 5 9 7 15 17 8 15 16 6 3 3 10 22 14 3 15 21 23 29 33 34
30 30 29 30 27 25 23 34 13 1 12 3 4 10 11 15 14 18 21 15 6 4 5 6 10 17 6 19 20 19 19 18 15 12 9 18 18 16 5 10 18 20 26 31 34
31 29 27 29 25 24 21 22 9 3 15 12 3 11 8 7 14 17 22 16 7 11 11 2 21 21 26 18 17 16 14 15 14 11 14 18 20 20 23 11 10 21 23 24 26
31 29 26 25 21 19 16 13 17 14 15 13 19 24 13 8 14 21 24 23 19 18 5 17 2 14 13 12 7 9 16 20 2 12 13 21 15 14 16 16 12 8 6 12 17
31 28 25 23 11 17 7 18 26 22 11 6 11 18 12 14 15 29 30 25 20 17 13 12 11 10 9 3 17 14 20 18 17 8 3 28 17 16 8 8 13 11 6 5 12
31 28 25 20 8 17 5 21 28 11 8 15 13 14 17 12 15 13 23 17 16 23 12 12 5 10 15 8 19 16 15 8 9 19 18 14 7 23 15 7 20 24 20 16 16
29 29 22 20 17 12 10 23 26 3 11 8 13 8 19 22 15 12 18 15 23 20 12 7 10 15 17 15 14 12 7 11 8 8 14 23 16 17 10 20 21 19 21 20 23
28 30 23 20 17 5 16 21 7 12 4 10 11 20 25 21 12 12 13 10 7 13 16 26 2 9 13 3 7 6 16 10 10 7 3 13 13 18 19 18 18 17 21 21 25
28 27 25 18 9 16 14 6 11 10 6 10 15 20 28 19 14 18 20 17 16 18 27 26 29 6 11 17 10 14 13 9 10 12 15 8 16 16 18 13 11 11 19 23 25
28 25 22 19 13 8 5 9 11 5 4 7 8 20 26 21 15 11 12 18 19 19 18 20 26 24 14 14 15 5 12 10 19 19 22 12 13 12 8 9 9 7 17 21 27
27 21 18 13 9 3 7 13 5 5 5 1 15 21 18 16 9 18 21 17 8 23 19 12 22 13 5 5 11 11 9 9 12 13 14 11 15 13 9 8 6 10 17 22 24
27 19 9 16 11 5 9 7 1 5 9 6 9 8 20 24 21 18 22 7 23 22 26 8 12 7 7 7 5 12 5 10 8 12 25 24 19 17 21 15 11 9 16 19 19
21 9 13 9 8 10 11 4 5 6 6 6 2 11 4 13 22 18 18 8 4 8 18 13 11 10 9 14 12 8 16 5 7 9 17 18 21 15 14 13 11 12 16 18 20
10 8 11 13 11 5 8 4 9 9 1 4 6 3 2 7 14 14 11 3 1 10 11 13 9 18 9 7 7 9 8 7 10 17 8 12 8 10 9 10 5 11 11 13 14
13 10 8 11 8 11 4 4 6 8 7 5 3 6 2 9 7 10 6 5 11 7 11 16 7 13 17 12 9 8 3 3 3 6 20 15 11 3 9 4 4 7 6 8 12
7 6 6 9 4 10 4 2 3 6 8 6 3 2 7 6 6 15 13 7 8 5 10 3 1 8 14 14 8 5 3 3 7 14 16 17 27 26 20 7 2 1 3 8 13
5 1 4 7 12 8 9 3 5 1 5 3 6 4 3 6 13 13 13 20 11 10 4 3 4 2 6 3 5 8 14 8 14 11 13 25 27 24 19 13 6 3 3 4 10
5 6 4 7 8 11 6 6 5 2 4 6 5 3 2 9 10 9 10 3 7 10 4 2 6 5 8 6 11 16 12 9 12 14 16 18 16 19 17 10 7 2 4 4 4
6 7 5 5 8 10 9 6 1 8 3 4 1 7 12 14 12 11 13 11 10 5 4 3 4 10 7 3 14 17 4 11 14 12 13 20 27 25 18 13 11 6 9 8 4
Wind_Direction_500mb
356 358 359 358 1 1 2 4 2 2 358 332 239 211 190 200 199 203 241 249 243 322 280 289 238 265 319 28 33 296 114 70 78 136 88 136 212 176 187 259 206 194 270 348 176
349 346 351 350 351 354 353 356 358 355 355 331 234 214 195 194 216 233 239 237 267 18 132 180 256 217 160 62 34 306 65 65 46 77 69 144 215 162 220 215 224 220 229 181 173
346 341 339 340 341 344 345 347 352 346 351 334 233 213 206 188 213 193 229 216 343 63 180 197 153 91 356 333 33 20 61 78 109 203 316 137 204 206 238 271 254 219 188 187 186
338 340 335 331 332 334 338 339 344 343 339 332 234 213 209 190 225 187 197 189 219 254 188 173 209 237 322 16 19 296 79 16 87 184 229 211 245 229 240 359 9 233 206 195 199
330 334 334 329 324 326 331 333 339 339 328 321 227 213 193 226 24 202 212 202 236 1 250 226 256 318 4 23 288 347 38 223 216 213 226 216 235 246 250 235 252 218 200 202 209
326 328 332 328 323 321 326 329 337 339 327 297 213 213 192 227 235 217 176 173 160 54 309 248 339 353 9 10 334 341 311 260 233 216 212 231 251 247 213 212 208 206 204 205 213
325 324 329 329 327 319 323 325 334 338 321 266 208 207 218 228 215 215 177 174 161 86 354 293 226 320 330 294 320 299 289 191 207 224 243 252 242 225 256 189 208 213 212 214 221
322 325 329 331 329 322 323 325 326 309 357 265 203 187 203 220 209 197 184 170 190 292 278 241 264 318 319 310 231 282 229 349 105 202 164 242 331 128 183 205 221 224 222 219 228
323 329 334 332 333 328 330 333 323 294 316 295 190 182 182 182 165 180 173 185 198 328 267 197 256 289 238 280 215 164 3 22 78 219 330 251 330 84 132 233 252 238 235 230 232
327 331 337 334 338 333 343 341 351 297 320 342 211 192 195 162 168 174 183 167 174 167 197 244 253 256 331 348 18 353 355 359 9 38 261 280 294 326 248 229 267 266 253 243 238
327 334 340 338 343 340 348 7 1 174 327 264 200 270 124 178 176 180 185 189 206 237 277 295 284 23 348 341 324 322 330 343 20 32 305 13 340 356 21 22 253 257 256 255 250
328 333 341 341 349 352 359 54 31 316 305 270 260 255 231 186 179 173 177 191 207 243 216 230 281 9 338 340 303 291 305 28 92 34 305 347 338 35 24 27 18 343 283 276 270
325 334 341 345 356 4 22 13 352 347 265 250 228 230 206 195 201 182 185 209 222 222 223 296 25 317 311 59 297 75 355 352 349 326 221 322 130 67 67 26 45 61 59 334 301
324 331 339 355 16 356 340 340 339 332 259 147 196 218 196 195 207 178 194 225 214 246 201 286 14 302 311 38 340 2 7 330 339 334 17 340 55 67 22 36 75 62 53 38 15
324 323 337 344 332 343 281 332 330 289 212 123 153 201 176 195 167 176 194 220 246 211 228 246 279 336 294 19 332 33 327 343 328 344 299 26 287 56 62 41 60 54 43 33 17
322 317 326 328 328 292 314 330 327 231 148 138 146 177 176 193 164 135 181 214 273 241 234 272 301 285 351 336 329 142 256 249 246 269 16 26 314 72 33 16 30 40 41 32 26
319 311 311 308 285 302 312 328 238 266 151 143 163 185 197 179 156 178 184 188 213 219 231 223 240 214 240 243 177 243 295 308 343 351 26 64 272 35 28 26 16 33 41 39 32
318 308 301 288 291 301 321 231 258 77 71 120 181 181 195 179 188 165 180 204 222 239 273 229 222 202 170 262 329 25 324 349 326 348 331 145 356 30 20 43 77 67 55 43 39
323 311 301 283 267 197 261 238 28 32 16 255 162 187 193 192 243 209 228 251 239 213 235 228 247 119 61 302 300 131 269 23 287 215 279 351 15 154 73 91 81 77 51 43 40
330 321 265 291 194 189 250 289 340 346 326 219 190 232 186 187 202 214 216 250 234 223 236 219 270 175 113 192 124 290 97 243 232 321 319 340 296 36 360 359 22 70 46 40 33
333 313 295 176 175 231 252 46 310 355 291 264 140 169 195 173 209 193 185 137 221 174 214 247 254 141 201 213 332 186 208 249 301 285 321 319 342 55 358 359 7 39 43 34 24
331 248 302 173 224 235 243 335 328 314 286 273 287 31 174 165 196 206 199 290 293 195 189 186 242 242 268 65 314 291 337 286 299 327 344 282 316 49 12 7 31 41 53 42 33
316 274 302 196 238 204 179 251 275 310 348 2 76 20 123 151 159 199 164 48 138 166 168 174 200 204 176 169 172 257 102 15 299 270 286 312 349 77 31 342 72 21 53 64 48
310 242 189 212 281 297 255 160 250 284 278 322 331 237 173 138 186 157 139 94 102 107 136 159 104 322 342 20 359 254 199 306 300 285 344 312 343 339 23 11 30 -0 93 59 66
263 115 304 194 199 267 277 304 272 182 244 291 187 74 50 124 140 136 136 134 116 151 110 285 138 217 74 68 260 306 303 251 263 302 297 337 329 0 6 345 350 2 102 146 91
282 314 259 272 277 252 197 190 258 335 282 144 259 52 9 78 14 124 143 94 74 116 82 45 170 238 188 217 265 290 302 237 276 286 285 316 334 11 350 320 282 294 201 264 86
286 310 295 176 193 228 205 222 229 337 166 313 246 167 111 61 44 59 76 74 68 34 75 294 155 242 266 246 291 262 204 287 301 282 327 316 350 336 334 333 315 298 286 335 253
Wind_Speed_850mb
31 31 32 35 36 39 41 44 43 37 30 13 7 11 11 9 11 11 3 5 2 3 2 3 5 6 2 3 7 5 4 15 16 4 18 12 8 3 1 5 5 8 4 3 17
31 32 30 32 34 36 40 43 42 38 31 13 9 12 12 10 10 11 11 8 4 5 5 5 5 3 3 3 4 12 17 22 9 9 9 11 10 7 7 8 11 12 9 9 21
30 31 31 30 31 34 38 42 41 37 31 15 11 14 13 11 9 7 15 9 1 2 6 4 6 2 2 2 7 8 19 9 8 2 8 5 7 6 10 6 7 10 12 19 22
34 31 30 31 30 32 36 41 41 38 29 13 11 15 12 13 3 10 11 8 5 1 2 5 7 4 4 10 5 4 7 1 4 7 4 5 3 7 16 6 5 11 12 22 23
35 35 31 31 31 31 33 38 41 40 25 9 11 16 13 13 1 8 13 10 4 4 6 7 4 5 8 6 5 12 8 4 5 10 11 6 15 16 15 18 9 9 19 24 20
33 35 34 31 30 29 30 34 38 34 17 7 10 17 11 22 10 10 9 10 3 3 5 5 8 7 8 8 11 10 8 7 10 10 12 16 13 9 6 19 18 18 23 22 22
31 33 34 33 27 28 28 31 32 26 14 6 10 17 12 2 13 16 18 14 7 3 6 6 5 13 8 6 2 8 16 8 11 8 9 12 25 17 10 19 25 25 24 24 24
31 31 33 32 27 26 27 29 31 22 23 8 12 14 8 15 9 18 20 14 6 2 4 3 5 3 10 3 7 11 5 10 10 7 7 12 14 10 10 22 28 26 28 29 31
30 30 31 30 28 24 25 32 32 15 15 7 9 10 15 11 7 16 18 6 5 3 5 5 5 9 7 15 17 8 15 16 6 3 3 10 22 14 3 15 21 23 29 33 34
30 30 29 30 27 25 23 34 13 1 12 3 4 10 11 15 14 18 21 15 6 4 5 6 10 17 6 19 20 19 19 18 15 12 9 18 18 16 5 10 18 20 26 31 34
31 29 27 29 25 24 21 22 9 3 15 12 3 11 8 7 14 17 22 16 7 11 11 2 21 21 26 18 17 16 14 15 14 11 14 18 20 20 23 11 10 21 23 24 26
31 29 26 25 21 19 16 13 17 14 15 13 19 24 13 8 14 21 24 23 19 18 5 17 2 14 13 12 7 9 16 20 2 12 13 21 15 14 16 16 12 8 6 12 17
31 28 25 23 11 17 7 18 26 22 11 6 11 18 12 14 15 29 30 25 20 17 13 12 11 10 9 3 17 14 20 18 17 8 3 28 17 16 8 8 13 11 6 5 12
31 28 25 20 8 17 5 21 28 11 8 15 13 14 17 12 15 13 23 17 16 23 12 12 5 10 15 8 19 16 15 8 9 19 18 14 7 23 15 7 20 24 20 16 16
29 29 22 20 17 12 10 23 26 3 11 8 13 8 19 22 15 12 18 15 23 20 12 7 10 15 17 15 14 12 7 11 8 8 14 23 16 17 10 20 21 19 21 20 23
28 30 23 20 17 5 16 21 7 12 4 10 11 20 25 21 12 12 13 10 7 13 16 26 2 9 13 3 7 6 16 10 10 7 3 13 13 18 19 18 18 17 21 21 25
28 27 25 18 9 16 14 6 11 10 6 10 15 20 28 19 14 18 20 17 16 18 27 26 29 6 11 17 10 14 13 9 10 12 15 8 16 16 18 13 11 11 19 23 25
28 25 22 19 13 8 5 9 11 5 4 7 8 20 26 21 15 11 12 18 19 19 18 20 26 24 14 14 15 5 12 10 19 19 22 12 13 12 8 9 9 7 17 21 27
27 21 18 13 9 3 7 13 5 5 5 1 15 21 18 16 9 18 21 17 8 23 19 12 22 13 5 5 11 11 9 9 12 13 14 11 15 13 9 8 6 10 17 22 24
27 19 9 16 11 5 9 7 1 5 9 6 9 8 20 24 21 18 22 7 23 22 26 8 12 7 7 7 5 12 5 10 8 12 25 24 19 17 21 15 11 9 16 19 19
21 9 13 9 8 10 11 4 5 6 6 6 2 11 4 13 22 18 18 8 4 8 18 13 11 10 9 14 12 8 16 5 7 9 17 18 21 15 14 13 11 12 16 18 20
10 8 11 13 11 5 8 4 9 9 1 4 6 3 2 7 14 14 11 3 1 10 11 13 9 18 9 7 7 9 8 7 10 17 8 12 8 10 9 10 5 11 11 13 14
13 10 8 11 8 11 4 4 6 8 7 5 3 6 2 9 7 10 6 5 11 7 11 16 7 13 17 12 9 8 3 3 3 6 20 15 11 3 9 4 4 7 6 8 12
7 6 6 9 4 10 4 2 3 6 8 6 3 2 7 6 6 15 13 7 8 5 10 3 1 8 14 14 8 5 3 3 7 14 16 17 27 26 20 7 2 1 3 8 13
5 1 4 7 12 8 9 3 5 1 5 3 6 4 3 6 13 13 13 20 11 10 4 3 4 2 6 3 5 8 14 8 14 11 13 25 27 24 19 13 6 3 3 4 10
5 6 4 7 8 11 6 6 5 2 4 6 5 3 2 9 10 9 10 3 7 10 4 2 6 5 8 6 11 16 12 9 12 14 16 18 16 19 17 10 7 2 4 4 4
6 7 5 5 8 10 9 6 1 8 3 4 1 7 12 14 12 11 13 11 10 5 4 3 4 10 7 3 14 17 4 11 14 12 13 20 27 25 18 13 11 6 9 8 4
Wind_Direction_850mb
356 358 359 358 1 1 2 4 2 2 358 332 239 211 190 200 199 203 241 249 243 322 280 289 238 265 319 28 33 296 114 70 78 136 88 136 212 176 187 259 206 194 270 348 176
349 346 351 350 351 354 353 356 358 355 355 331 234 214 195 194 216 233 239 237 267 18 132 180 256 217 160 62 34 306 65 65 46 77 69 144 215 162 220 215 224 220 229 181 173
346 341 339 340 341 344 345 347 352 346 351 334 233 213 206 188 213 193 229 216 343 63 180 197 153 91 356 333 33 20 61 78 109 203 316 137 204 206 238 271 254 219 188 187 186
338 340 335 331 332 334 338 339 344 343 339 332 234 213 209 190 225 187 197 189 219 254 188 173 209 237 322 16 19 296 79 16 87 184 229 211 245 229 240 359 9 233 206 195 199
330 334 334 329 324 326 331 333 339 339 328 321 227 213 193 226 24 202 212 202 236 1 250 226 256 318 4 23 288 347 38 223 216 213 226 216 235 246 250 235 252 218 200 202 209
326 328 332 328 323 321 326 329 337 339 327 297 213 213 192 227 235 217 176 173 160 54 309 248 339 353 9 10 334 341 311 260 233 216 212 231 251 247 213 212 208 206 204 205 213
325 324 329 329 327 319 323 325 334 338 321 266 208 207 218 228 215 215 177 174 161 86 354 293 226 320 330 294 320 299 289 191 207 224 243 252 242 225 256 189 208 213 212 214 221
322 325 329 331 329 322 323 325 326 309 357 265 203 187 203 220 209 197 184 170 190 292 278 241 264 318 319 310 231 282 229 349 105 202 164 242 331 128 183 205 221 224 222 219 228
323 329 334 332 333 328 330 333 323 294 316 295 190 182 182 182 165 180 173 185 198 328 267 197 256 289 238 280 215 164 3 22 78 219 330 251 330 84 132 233 252 238 235 230 232
327 331 337 334 338 333 343 341 351 297 320 342 211 192 195 162 168 174 183 167 174 167 197 244 253 256 331 348 18 353 355 359 9 38 261 280 294 326 248 229 267 266 253 243 238
327 334 340 338 343 340 348 7 1 174 327 264 200 270 124 178 176 180 185 189 206 237 277 295 284 23 348 341 324 322 330 343 20 32 305 13 340 356 21 22 253 257 256 255 250
328 333 341 341 349 352 359 54 31 316 305 270 260 255 231 186 179 173 177 191 207 243 216 230 281 9 338 340 303 291 305 28 92 34 305 347 338 35 24 27 18 343 283 276 270
325 334 341 345 356 4 22 13 352 347 265 250 228 230 206 195 201 182 185 209 222 222 223 296 25 317 311 59 297 75 355 352 349 326 221 322 130 67 67 26 45 61 59 334 301
324 331 339 355 16 356 340 340 339 332 259 147 196 218 196 195 207 178 194 225 214 246 201 286 14 302 311 38 340 2 7 330 339 334 17 340 55 67 22 36 75 62 53 38 15
324 323 337 344 332 343 281 332 330 289 212 123 153 201 176 195 167 176 194 220 246 211 228 246 279 336 294 19 332 33 327 343 328 344 299 26 287 56 62 41 60 54 43 33 17
322 317 326 328 328 292 314 330 327 231 148 138 146 177 176 193 164 135 181 214 273 241 234 272 301 285 351 336 329 142 256 249 246 269 16 26 314 72 33 16 30 40 41 32 26
319 311 311 308 285 302 312 328 238 266 151 143 163 185 197 179 156 178 184 188 213 219 231 223 240 214 240 243 177 243 295 308 343 351 26 64 272 35 28 26 16 33 41 39 32
318 308 301 288 291 301 321 231 258 77 71 120 181 181 195 179 188 165 180 204 222 239 273 229 222 202 170 262 329 25 324 349 326 348 331 145 356 30 20 43 77 67 55 43 39
323 311 301 283 267 197 261 238 28 32 16 255 162 187 193 192 243 209 228 251 239 213 235 228 247 119 61 302 300 131 269 23 287 215 279 351 15 154 73 91 81 77 51 43 40
330 321 265 291 194 189 250 289 340 346 326 219 190 232 186 187 202 214 216 250 234 223 236 219 270 175 113 192 124 290 97 243 232 321 319 340 296 36 360 359 22 70 46 40 33
333 313 295 176 175 231 252 46 310 355 291 264 140 169 195 173 209 193 185 137 221 174 214 247 254 141 201 213 332 186 208 249 301 285 321 319 342 55 358 359 7 39 43 34 24
331 248 302 173 224 235 243 335 328 314 286 273 287 31 174 165 196 206 199 290 293 195 189 186 242 242 268 65 314 291 337 286 299 327 344 282 316 49 12 7 31 41 53 42 33
316 274 302 196 238 204 179 251 275 310 348 2 76 20 123 151 159 199 164 48 138 166 168 174 200 204 176 169 172 257 102 15 299 270 286 312 349 77 31 342 72 21 53 64 48
310 242 189 212 281 297 255 160 250 284 278 322 331 237 173 138 186 157 139 94 102 107 136 159 104 322 342 20 359 254 199 306 300 285 344 312 343 339 23 11 30 -0 93 59 66
263 115 304 194 199 267 277 304 272 182 244 291 187 74 50 124 140 136 136 134 116 151 110 285 138 217 74 68 260 306 303 251 263 302 297 337 329 0 6 345 350 2 102 146 91
282 314 259 272 277 252 197 190 258 335 282 144 259 52 9 78 14 124 143 94 74 116 82 45 170 238 188 217 265 290 302 237 276 286 285 316 334 11 350 320 282 294 201 264 86
286 310 295 176 193 228 205 222 229 337 166 313 246 167 111 61 44 59 76 74 68 34 75 294 155 242 266 246 291 262 204 287 301 282 327 316 350 336 334 333 315 298 286 335 253